This demonstration page uses our WeatherBlox Daily Observations layout. Learn more.

36.17497, -115.13722

Hourly Observations for February 16, 2016

Temp ( °F °C ) Dew Point ( °F °C ) Humidity (%) Winds ( mph kmh ) Pressure ( in mb ) Visibility ( mi km ) Precip ( " mm )
12:53 am 00:53 Clear 59 15 33 0.6 38 38 NNW 10 17 30.13 1020 10 16.0934 0 0
1:53 am 01:53 Clear 57 13.9 32 0 39 39 N 7 11 30.13 1020 10 16.0934 0 0
2:53 am 02:53 Clear 57 13.9 33 0.6 41 41 NNW 9 15 30.11 1020 10 16.0934 0 0
3:53 am 03:53 Clear 54 12.2 33 0.6 45 45 Calm 30.11 1020 10 16.0934 0 0
4:53 am 04:53 Clear 56 13.3 32 0 40 40 NW 12 19 30.12 1020 10 16.0934 0 0
5:53 am 05:53 Clear 55 12.8 32 0 42 42 NNW 10 17 30.11 1020 10 16.0934 0 0
6:53 am 06:53 Sunny 53 11.7 32 0 45 45 NNW 5 7 30.13 1020 10 16.0934 0 0
7:53 am 07:53 Sunny 59 15 32 0 36 36 N 12 19 30.14 1021 10 16.0934 0 0
8:53 am 08:53 Sunny 61 16.1 32 0 34 34 W 6 9 30.13 1020 10 16.0934 0 0
9:53 am 09:53 Sunny 65 18.3 31 -0.6 28 28 NE 6 9 30.12 1020 10 16.0934 0 0
10:53 am 10:53 Sunny 67 19.4 31 -0.6 26 26 Calm 30.1 1019 10 16.0934 0 0
11:53 am 11:53 Sunny 71 21.7 32 0 24 24 VRB 6 9 30.06 1018 10 16.0934 0 0
12:53 pm 12:53 Sunny 72 22.2 32 0 23 23 Calm 30.02 1017 10 16.0934 0 0
1:53 pm 13:53 Sunny 74 23.3 30 -1.1 20 20 VRB 5 7 30 1016 10 16.0934 0 0
2:53 pm 14:53 Sunny 74 23.3 27 -2.8 17 17 ESE 3 6 29.98 1015 10 16.0934 0 0
3:53 pm 15:53 Sunny 74 23.3 28 -2.2 18 18 Calm 29.96 1015 10 16.0934 0 0
4:53 pm 16:53 Sunny 75 23.9 26 -3.3 16 16 Calm 29.95 1014 10 16.0934 0 0
5:53 pm 17:53 Clear 71 21.7 27 -2.8 19 19 Calm 29.96 1014 10 16.0934 0 0
6:53 pm 18:53 Clear 67 19.4 28 -2.2 23 23 Calm 29.97 1015 10 16.0934 0 0
7:53 pm 19:53 Clear 61 16.1 30 -1.1 31 31 NW 5 7 29.97 1015 10 16.0934 0 0
8:53 pm 20:53 Clear 60 15.6 30 -1.1 32 32 NNW 3 6 29.96 1015 10 16.0934 0 0
9:53 pm 21:53 Clear 57 13.9 30 -1.1 36 36 NNW 3 6 29.97 1015 10 16.0934 0 0
10:53 pm 22:53 Clear 55 12.8 31 -0.6 40 40 NNW 5 7 29.97 1015 10 16.0934 0 0
11:53 pm 23:53 Clear 53 11.7 30 -1.1 41 41 N 7 11 29.96 1015 10 16.0934 0 0

Powered by AerisWeather